When you browse on this site, cookies collect data to enhance your experience and personalize the content and advertising you see.
Visit our Privacy Policy to learn more. By continuing to use the site, you agree to this use of cookies and data.
  • In Romania
  • List of Countries
  • For 7 days
  • Water Temperature
  • Satellite Maps
  • Weather Map
  • Weather Widgets
  • user-avatar
    Login

    Hourly Weather Olhovec

    Today, 24 March, Sunday

    Time Temperature Precipitation Wind Pressure Humidity
    00:00 -2°C° 0 mm 2 mps 746 mmHg 92%
    01:00 -2°C° 0 mm 2 mps 746 mmHg 92%
    02:00 -2°C° 0 mm 2 mps 746 mmHg 93%
    03:00 -2°C° 0 mm 2 mps 745 mmHg 93%
    04:00 -1°C° 0 mm 1 mps 745 mmHg 93%
    05:00 -2°C° 0 mm 1 mps 744 mmHg 93%
    06:00 -4°C° 0 mm 0 mps 744 mmHg 93%
    07:00 -2°C° 0 mm 1 mps 744 mmHg 93%
    08:00 -2°C° 0 mm 1 mps 743 mmHg 92%
    09:00 -3°C° 0 mm 2 mps 743 mmHg 92%
    10:00 -2°C° 0 mm 3 mps 742 mmHg 92%
    11:00 -2°C° 0 mm 3 mps 742 mmHg 92%
    12:00 -2°C° 0 mm 4 mps 741 mmHg 92%
    13:00 -2°C° 0.3 mm 4 mps 741 mmHg 94%
    14:00 -2°C° 0.3 mm 4 mps 740 mmHg 95%
    15:00 -2°C° 0.3 mm 5 mps 740 mmHg 96%
    16:00 -2°C° 0.2 mm 5 mps 739 mmHg 96%
    17:00 -1°C° 0.2 mm 5 mps 739 mmHg 95%
    18:00 -1°C° 0.2 mm 4 mps 739 mmHg 95%
    19:00 -1°C° 0 mm 4 mps 739 mmHg 94%
    20:00 -1°C° 0 mm 4 mps 739 mmHg 93%
    21:00 -1°C° 0 mm 4 mps 739 mmHg 92%
    22:00 -2°C° 0 mm 4 mps 738 mmHg 92%
    23:00 -3°C° 0 mm 4 mps 738 mmHg 91%

    Tomorrow, 25 March, Monday

    Time Temperature Precipitation Wind Pressure Humidity
    00:00 -4°C° 0 mm 4 mps 738 mmHg 91%
    01:00 -4°C° 0 mm 4 mps 738 mmHg 91%
    02:00 -4°C° 0 mm 4 mps 738 mmHg 90%
    03:00 -5°C° 0 mm 4 mps 738 mmHg 90%
    04:00 -5°C° 0 mm 4 mps 738 mmHg 90%
    05:00 -5°C° 0 mm 4 mps 739 mmHg 90%
    06:00 -5°C° 0 mm 4 mps 739 mmHg 90%
    07:00 -5°C° 0 mm 4 mps 739 mmHg 89%
    08:00 -4°C° 0 mm 4 mps 739 mmHg 87%
    09:00 -3°C° 0 mm 4 mps 739 mmHg 86%
    10:00 -2°C° 0 mm 4 mps 740 mmHg 86%
    11:00 -2°C° 0 mm 4 mps 740 mmHg 87%
    12:00 -1°C° 0 mm 4 mps 740 mmHg 88%
    13:00 -1°C° 0 mm 4 mps 740 mmHg 88%
    14:00 -1°C° 0 mm 4 mps 740 mmHg 88%
    15:00 0°C° 0 mm 4 mps 740 mmHg 89%
    16:00 0°C° 0 mm 3 mps 740 mmHg 87%
    17:00 0°C° 0 mm 3 mps 740 mmHg 85%
    18:00 0°C° 0 mm 3 mps 740 mmHg 83%
    19:00 -1°C° 0 mm 3 mps 740 mmHg 84%
    20:00 -2°C° 0 mm 3 mps 740 mmHg 85%
    21:00 -2°C° 0 mm 3 mps 740 mmHg 85%
    22:00 -2°C° 0 mm 3 mps 740 mmHg 85%
    23:00 -4°C° 0 mm 3 mps 741 mmHg 85%

    Day after tomorrow, 26 March, Tuesday

    Time Temperature Precipitation Wind Pressure Humidity
    00:00 -4°C° 0 mm 3 mps 741 mmHg 85%
    01:00 -4°C° 0 mm 3 mps 740 mmHg 84%
    02:00 -4°C° 0 mm 3 mps 740 mmHg 84%
    03:00 -4°C° 0 mm 3 mps 740 mmHg 84%
    04:00 -4°C° 0 mm 3 mps 740 mmHg 85%
    05:00 -4°C° 0 mm 3 mps 740 mmHg 86%
    06:00 -4°C° 0 mm 3 mps 739 mmHg 88%
    07:00 -2°C° 0 mm 3 mps 739 mmHg 89%
    08:00 -2°C° 0 mm 3 mps 739 mmHg 89%
    09:00 -1°C° 0 mm 3 mps 739 mmHg 90%
    10:00 0°C° 0.2 mm 3 mps 738 mmHg 92%
    11:00 0°C° 0.2 mm 3 mps 738 mmHg 95%
    12:00 0°C° 0.2 mm 3 mps 738 mmHg 97%
    13:00 0°C° 0 mm 3 mps 737 mmHg 96%
    14:00 0°C° 0 mm 4 mps 737 mmHg 95%
    15:00 0°C° 0 mm 4 mps 736 mmHg 94%
    16:00 0°C° 0.3 mm 4 mps 736 mmHg 95%
    17:00 0°C° 0.3 mm 5 mps 736 mmHg 96%
    18:00 -1°C° 0.3 mm 5 mps 735 mmHg 97%
    19:00 -2°C° 0.3 mm 6 mps 735 mmHg 94%
    20:00 -2°C° 0.3 mm 6 mps 735 mmHg 91%
    21:00 -2°C° 0.3 mm 7 mps 736 mmHg 89%
    22:00 -3°C° 0 mm 6 mps 736 mmHg 88%
    23:00 -3°C° 0 mm 6 mps 736 mmHg 88%

    27 March, Wednesday

    Time Temperature Precipitation Wind Pressure Humidity
    00:00 -4°C° 0 mm 6 mps 736 mmHg 88%
    01:00 -4°C° 0.6 mm 6 mps 736 mmHg 88%
    02:00 -4°C° 0.6 mm 6 mps 736 mmHg 88%
    03:00 -5°C° 0.6 mm 6 mps 737 mmHg 88%
    04:00 -6°C° 0 mm 6 mps 737 mmHg 87%
    05:00 -8°C° 0 mm 6 mps 737 mmHg 86%
    06:00 -8°C° 0 mm 5 mps 737 mmHg 84%
    07:00 -8°C° 0 mm 6 mps 738 mmHg 83%
    08:00 -8°C° 0 mm 6 mps 738 mmHg 82%
    09:00 -8°C° 0 mm 7 mps 738 mmHg 80%
    10:00 -7°C° 0 mm 7 mps 738 mmHg 80%
    11:00 -6°C° 0 mm 8 mps 739 mmHg 80%
    12:00 -6°C° 0 mm 8 mps 739 mmHg 79%
    13:00 -6°C° 0.5 mm 9 mps 739 mmHg 82%
    14:00 -6°C° 0.5 mm 9 mps 739 mmHg 85%
    15:00 -6°C° 0.5 mm 9 mps 740 mmHg 87%
    16:00 -5°C° 0.3 mm 9 mps 740 mmHg 86%
    17:00 -5°C° 0.3 mm 9 mps 741 mmHg 85%
    18:00 -5°C° 0.3 mm 9 mps 741 mmHg 84%
    19:00 -5°C° 0.1 mm 9 mps 742 mmHg 84%
    20:00 -5°C° 0.1 mm 8 mps 743 mmHg 83%
    21:00 -6°C° 0.1 mm 8 mps 744 mmHg 82%
    22:00 -6°C° 0 mm 7 mps 744 mmHg 83%
    23:00 -7°C° 0 mm 7 mps 745 mmHg 84%

    28 March, Thursday

    Time Temperature Precipitation Wind Pressure Humidity
    00:00 -6°C° 0 mm 6 mps 746 mmHg 86%
    01:00 -6°C° 0 mm 6 mps 746 mmHg 86%
    02:00 -8°C° 0 mm 6 mps 747 mmHg 86%
    03:00 -8°C° 0 mm 6 mps 747 mmHg 86%
    04:00 -8°C° 0 mm 6 mps 748 mmHg 87%
    05:00 -8°C° 0 mm 5 mps 748 mmHg 87%
    06:00 -8°C° 0 mm 5 mps 749 mmHg 88%
    07:00 -7°C° 0 mm 5 mps 749 mmHg 86%
    08:00 -7°C° 0 mm 5 mps 749 mmHg 84%
    09:00 -6°C° 0 mm 5 mps 749 mmHg 82%
    10:00 -5°C° 0 mm 5 mps 749 mmHg 81%
    11:00 -4°C° 0 mm 6 mps 749 mmHg 79%
    12:00 -3°C° 0 mm 6 mps 749 mmHg 77%
    13:00 -3°C° 0 mm 6 mps 749 mmHg 77%
    14:00 -2°C° 0 mm 6 mps 748 mmHg 77%
    15:00 -1°C° 0 mm 6 mps 748 mmHg 77%
    16:00 0°C° 0 mm 5 mps 748 mmHg 77%
    17:00 0°C° 0 mm 5 mps 747 mmHg 76%
    18:00 0°C° 0 mm 5 mps 747 mmHg 75%
    19:00 -1°C° 0 mm 5 mps 747 mmHg 76%
    20:00 -1°C° 0 mm 5 mps 747 mmHg 76%
    21:00 -1°C° 0 mm 5 mps 746 mmHg 76%
    22:00 -1°C° 0 mm 5 mps 746 mmHg 79%
    23:00 -1°C° 0 mm 5 mps 745 mmHg 82%

    29 March, Friday

    Time Temperature Precipitation Wind Pressure Humidity
    00:00 -2°C° 0 mm 6 mps 745 mmHg 84%
    01:00 -2°C° 0 mm 6 mps 744 mmHg 86%
    02:00 -2°C° 0 mm 6 mps 744 mmHg 87%
    03:00 -2°C° 0 mm 6 mps 744 mmHg 89%
    04:00 -2°C° 0.1 mm 6 mps 743 mmHg 90%
    05:00 -2°C° 0.1 mm 6 mps 743 mmHg 90%
    06:00 -2°C° 0.1 mm 6 mps 743 mmHg 91%
    07:00 -2°C° 0.1 mm 6 mps 743 mmHg 91%
    08:00 -1°C° 0.1 mm 6 mps 743 mmHg 92%
    09:00 -1°C° 0.1 mm 6 mps 743 mmHg 93%
    10:00 -1°C° 0 mm 6 mps 743 mmHg 93%
    11:00 -1°C° 0 mm 6 mps 743 mmHg 93%
    12:00 +1°C° 0 mm 6 mps 744 mmHg 92%
    13:00 0°C° 0 mm 7 mps 744 mmHg 89%
    14:00 0°C° 0 mm 7 mps 744 mmHg 86%
    15:00 +2°C° 0 mm 7 mps 744 mmHg 83%
    16:00 +2°C° 0 mm 6 mps 744 mmHg 84%
    17:00 +1°C° 0 mm 5 mps 744 mmHg 84%
    18:00 +1°C° 0 mm 4 mps 744 mmHg 84%
    19:00 +1°C° 0 mm 4 mps 745 mmHg 86%
    20:00 +1°C° 0 mm 3 mps 745 mmHg 87%
    21:00 0°C° 0 mm 3 mps 745 mmHg 89%
    22:00 0°C° 0 mm 3 mps 745 mmHg 89%
    23:00 0°C° 0 mm 3 mps 745 mmHg 89%
    Show more